[[{"header":{"parameterUnit":"m.s-1","parameterCategory":1,"la1":30.2991,"la2":30.254,"lo1":-89.0895,"lo2":-89.0444,"dy":0.0017,"dx":0.0017,"nx":28,"ny":28,"refTime":"2025-07-08T09:00:00:Z","depth":0,"parameterNumber":2,"parameterNumberName":"U-component_of_WINDS"},"data":[0,0,0,0,0,0,0,0,0,0,0,0,0,0,0,0,0,0,0,0,0,0,0,0,0,0,0,0,0,0,0,0,0,0,0,0,0,0,0,0,0,0,0,0,0,0,0,0,0,0,0,0,0,0,0,0,0,0,1.7787,1.7788,0,1.7948,1.795,1.7952,1.7958,1.7956,1.7954,1.7952,1.8126,1.8132,1.8139,0,0,0,0,0,0,0,0,0,0,0,0,0,1.7488,1.7494,1.7787,1.7789,1.7791,1.7948,1.795,1.7953,1.7958,1.7956,1.7953,1.7951,1.8124,1.8131,1.8139,0,0,0,0,0,0,0,0,0,0,0,0,0,1.7631,1.7496,1.7786,1.7812,1.7816,1.7948,1.795,1.7953,1.7959,1.7956,1.7953,1.795,1.8121,1.8131,1.814,1.8259,0,0,1.817,1.8174,0,0,0,0,0,0,0,0,1.7623,1.7642,1.7806,1.7811,1.7815,1.793,1.7909,1.8056,1.7959,1.7905,1.7952,1.7949,1.8064,1.8078,1.8115,1.8267,1.8275,1.8171,1.8177,1.8181,1.8183,0,0,0,0,0,0,0,1.7613,1.7635,1.7851,1.7809,1.7814,1.7818,1.7835,1.7937,1.7999,1.7909,1.791,1.7929,1.8065,1.8106,1.8119,1.8277,1.817,1.8179,1.8185,1.8189,1.8533,1.8536,0,0,0,0,0,0,1.7597,1.7627,1.7846,1.7856,1.7709,1.7825,1.7844,1.7896,1.7998,1.801,1.7931,1.7928,1.809,1.8108,1.8125,1.827,1.8181,1.819,1.8195,1.853,1.8534,1.8538,0,0,0,0,0,0,1.7591,1.7616,1.7839,1.7741,1.777,1.7834,1.7892,1.7901,1.7941,1.8014,1.8026,1.796,1.8089,1.8112,1.8225,1.8276,1.8194,1.8203,1.8526,1.8531,1.8536,1.8561,0,0,0,0,0,0,1.7582,1.7614,1.7659,1.7742,1.7775,1.7935,1.7895,1.7906,1.7957,1.7955,1.8045,1.8057,1.8088,1.821,1.8234,1.8288,1.821,1.8522,1.8528,1.8534,1.8556,1.8566,1.8575,0,0,0,0,0,1.7571,1.7662,1.7661,1.7688,1.7832,1.7937,1.7957,1.7988,1.7961,1.8007,1.8053,1.8054,1.8266,1.8222,1.8249,1.8306,1.8519,1.8527,1.8534,1.8551,1.8564,1.8575,0,0,0,0,0,0,1.7587,1.7673,1.7674,1.7793,1.7857,1.7938,1.7998,1.8001,1.8077,1.8072,1.8111,1.8131,1.8243,1.8286,1.8235,1.8425,1.8389,1.8403,1.8393,1.8406,1.8415,1.8403,1.8219,0,0,0,0,0,1.7603,1.7679,1.7752,1.7851,1.7882,1.7934,1.7981,1.8,1.8069,1.8097,1.8152,1.8222,1.8303,1.8357,1.8437,1.8561,1.8581,1.8614,1.8623,1.8631,1.8642,1.871,1.8725,1.8562,1.8562,1.8562,0,0,1.764,1.7697,1.7743,1.7855,1.7907,1.7986,1.7957,1.8043,1.8103,1.8111,1.822,1.8263,1.8343,1.8461,1.8517,1.8501,1.8691,1.864,1.8646,1.8654,1.8719,1.8734,1.8748,1.8567,1.8566,1.8566,0,0,1.7747,1.7797,1.7884,1.7935,1.8013,1.8046,1.8066,1.8146,1.8174,1.8283,1.829,1.8362,1.8503,1.8559,1.8606,1.873,1.8733,1.8755,1.8805,1.8871,1.8883,1.8895,1.8939,1.8954,1.8766,1.8766,1.8766,0,1.7784,1.7901,1.7929,1.8014,1.8062,1.8069,1.8158,1.8208,1.8308,1.8343,1.8323,1.8497,1.8552,1.8682,1.8712,1.875,1.8775,1.8745,1.8879,1.8891,1.8902,1.8944,1.8961,1.8768,1.8768,1.8767,1.8767,0,1.7942,1.8023,1.8084,1.8177,1.8233,1.8319,1.8361,1.8415,1.8427,1.8463,1.8574,1.8638,1.873,1.8762,1.8778,1.8895,1.8883,1.887,1.8835,1.8919,1.8959,1.8976,1.8771,1.877,1.877,1.8769,0,0,1.8066,1.8169,1.8191,1.8233,1.8317,1.8381,1.8468,1.8554,1.8599,1.8668,1.8741,1.8858,1.8846,1.8899,1.892,1.8977,1.907,1.8958,1.896,1.8976,1.9203,1.9212,1.923,1.9072,1.9075,1.9077,1.9196,0,1.8182,1.8332,1.8358,1.8491,1.8566,1.8572,1.8648,1.8708,1.8743,1.8813,1.8853,1.8935,1.8913,1.8944,1.9001,1.9047,1.9116,1.9038,1.9142,1.9146,1.9122,1.9251,1.9262,1.937,1.9212,1.9215,1.9216,0,1.8338,1.8406,1.8545,1.8616,1.8649,1.8715,1.8795,1.8862,1.8931,1.8952,1.9009,1.9022,1.9113,1.9072,1.9198,1.9144,1.9188,1.9217,1.9222,1.9233,1.9187,1.9266,1.9406,1.9422,1.9242,1.924,1.9238,0,1.8413,1.854,1.8639,1.8674,1.876,1.8807,1.8845,1.891,1.896,1.903,1.9063,1.9144,1.9189,1.9252,1.9287,1.9254,1.9411,1.9373,1.9432,1.9431,1.9466,1.9463,1.9614,1.9493,1.9493,1.9493,1.9492,0,1.854,1.8625,1.8674,1.8735,1.883,1.8859,1.8953,1.8991,1.9048,1.9117,1.9129,1.9194,1.9236,1.9308,1.9336,1.9436,1.9456,1.9477,1.9483,1.9476,1.9473,1.9506,1.95,1.9497,1.9496,1.9495,1.9494,0,1.8642,1.8677,1.8785,1.8856,1.8876,1.8943,1.9004,1.9064,1.9097,1.9185,1.9207,1.9261,1.9345,1.9386,1.9492,1.9511,1.9623,1.9625,1.9599,1.9602,1.9658,1.9652,1.9836,1.9862,1.9723,1.9724,1.9726,0,1.8721,1.8785,1.8861,1.8907,1.8945,1.9019,1.9068,1.9099,1.915,1.9231,1.9281,1.9365,1.9434,1.9569,1.9619,1.97,1.9704,1.9762,1.9716,1.9706,1.9704,1.97,1.9706,1.9771,1.9772,1.9773,1.9774,0,1.8857,1.887,1.8939,1.9013,1.907,1.9132,1.9192,1.9229,1.927,1.9327,1.9411,1.9464,1.957,1.9654,1.9737,1.9779,1.9784,1.9788,1.9806,1.9799,1.9781,1.9791,1.9622,1.9784,1.9783,1.9782,1.9782,1.9782,1.8949,1.9006,1.9067,1.9143,1.919,1.9246,1.9304,1.9343,1.9413,1.9499,1.9514,1.9604,1.9669,1.9781,1.9825,1.9896,1.9883,1.991,1.9916,1.9922,1.9925,1.9769,1.9912,1.9912,1.9912,1.9911,1.9911,0,1.9086,1.9124,1.9193,1.9275,1.9334,1.9329,1.9395,1.9446,1.9524,1.9583,1.9649,1.9745,1.9825,1.9879,1.9961,2.0008,2.0012,2.0028,2.0026,2.0035,1.9932,1.9908,2.0023,2.0023,2.0023,2.0023,2.0023,2.0023,1.9163,1.9258,1.9279,1.9397,1.9436,1.9521,1.9559,1.961,1.9657,1.9763,1.9828,1.9861,1.9919,2.0004,2.0077,2.0091,2.0121,2.0137,2.0151,2.0054,2.0042,2.0031,2.0009,2.0143,2.0143,2.0247,2.0248,2.0249]},{"header":{"parameterUnit":"m.s-1","parameterCategory":1,"la1":30.2991,"la2":30.254,"lo1":-89.0895,"lo2":-89.0444,"dy":0.0017,"dx":0.0017,"nx":28,"ny":28,"refTime":"2025-07-08T09:00:00:Z","depth":0,"parameterNumber":3,"parameterNumberName":"V-component_of_WINDS"},"data":[0,0,0,0,0,0,0,0,0,0,0,0,0,0,0,0,0,0,0,0,0,0,0,0,0,0,0,0,0,0,0,0,0,0,0,0,0,0,0,0,0,0,0,0,0,0,0,0,0,0,0,0,0,0,0,0,0,0,3.9067,3.9066,0,3.9025,3.9024,3.9024,3.8874,3.8871,3.8867,3.8864,3.8823,3.8825,3.8827,0,0,0,0,0,0,0,0,0,0,0,0,0,3.9019,3.902,3.9067,3.9066,3.9066,3.9025,3.9024,3.9024,3.8875,3.887,3.8866,3.8862,3.8823,3.8825,3.8828,0,0,0,0,0,0,0,0,0,0,0,0,0,3.9015,3.9021,3.9067,3.8987,3.8979,3.9025,3.9024,3.9024,3.8876,3.887,3.8865,3.8861,3.8822,3.8825,3.8828,3.8949,0,0,3.8837,3.8839,0,0,0,0,0,0,0,0,3.9015,3.9017,3.8999,3.8992,3.8984,3.8949,3.8992,3.8999,3.8877,3.8915,3.8864,3.8858,3.887,3.8868,3.8872,3.8947,3.8946,3.8838,3.884,3.8841,3.8842,0,0,0,0,0,0,0,3.9015,3.9017,3.905,3.8999,3.899,3.8953,3.8946,3.8993,3.8921,3.8911,3.89,3.8897,3.8864,3.8869,3.887,3.8945,3.8838,3.884,3.8842,3.8844,3.9115,3.912,0,0,0,0,0,0,3.9027,3.9019,3.9052,3.9049,3.8987,3.8958,3.8951,3.8966,3.892,3.8909,3.8901,3.889,3.8866,3.8866,3.8868,3.9005,3.8841,3.8844,3.8846,3.911,3.9116,3.9122,0,0,0,0,0,0,3.9027,3.9031,3.9053,3.9031,3.9031,3.8964,3.8982,3.8967,3.8972,3.8913,3.89,3.8919,3.8862,3.8863,3.8929,3.9001,3.8845,3.8848,3.9104,3.9112,3.9119,3.9282,0,0,0,0,0,0,3.9026,3.9032,3.9078,3.9033,3.9033,3.9116,3.8986,3.897,3.8977,3.8962,3.8926,3.8916,3.8858,3.8925,3.8932,3.9003,3.8851,3.9097,3.9107,3.9117,3.9269,3.9294,3.9315,0,0,0,0,0,3.9025,3.9126,3.9081,3.9086,3.9088,3.9121,3.912,3.9052,3.8984,3.9029,3.8991,3.8917,3.8993,3.8933,3.894,3.9013,3.9092,3.9104,3.9116,3.9259,3.9289,3.9315,0,0,0,0,0,0,3.9183,3.9119,3.9068,3.9158,3.9146,3.9095,3.915,3.9086,3.9094,3.9079,3.8994,3.8988,3.9066,3.9045,3.8981,3.9126,3.903,3.9044,3.9136,3.9164,3.9187,3.919,3.8853,0,0,0,0,0,3.9228,3.9259,3.9202,3.9287,3.9283,3.9218,3.923,3.9178,3.9162,3.9156,3.9123,3.9111,3.9131,3.9147,3.9163,3.9266,3.9255,3.9319,3.9342,3.9361,3.9374,3.9425,3.9452,3.9162,3.9161,3.9161,0,0,3.9322,3.9291,3.9316,3.9318,3.9302,3.9336,3.9215,3.9257,3.9281,3.9163,3.9222,3.9197,3.9178,3.9263,3.9298,3.9248,3.9451,3.9376,3.9392,3.9394,3.944,3.9468,3.9492,3.917,3.9168,3.9167,0,0,3.951,3.949,3.9557,3.9544,3.9521,3.9476,3.9493,3.9451,3.943,3.9488,3.9399,3.9427,3.9466,3.9455,3.9454,3.9636,3.9568,3.9644,3.9764,3.9814,3.9837,3.9857,3.9921,3.9945,3.9657,3.9658,3.9658,0,3.963,3.9677,3.9601,3.9647,3.965,3.9543,3.961,3.9601,3.9585,3.959,3.9534,3.9577,3.9557,3.9637,3.9681,3.9685,3.97,3.9648,3.984,3.9859,3.9876,3.9936,3.996,3.9667,3.9666,3.9665,3.9664,0,3.9824,3.9858,3.9916,3.9901,3.991,3.9967,3.9899,3.9918,3.9865,3.9827,3.9886,3.9858,3.9865,3.9881,3.983,3.9953,3.9922,3.9855,3.9756,3.9915,3.9969,3.9992,3.968,3.9677,3.9674,3.9672,0,0,4.0112,4.0052,4.0074,4.0065,4.0031,4.0056,4.0108,4.0114,4.0131,4.0124,4.0164,4.0198,4.0134,4.0134,4.0081,4.0126,4.027,4.0052,4.005,4.0093,4.0402,4.0452,4.048,4.0225,4.0229,4.0232,4.0403,0,4.0289,4.0372,4.0304,4.0401,4.043,4.0328,4.0373,4.0357,4.0322,4.0343,4.0304,4.0329,4.0244,4.0243,4.0283,4.0244,4.0331,4.0231,4.0261,4.0263,4.0268,4.0508,4.0562,4.0725,4.0424,4.0427,4.043,0,4.0507,4.0507,4.0606,4.0563,4.0573,4.0615,4.0613,4.0634,4.0614,4.0585,4.0584,4.0518,4.0566,4.0469,4.0533,4.0467,4.0475,4.0458,4.0463,4.0462,4.0356,4.0514,4.0775,4.0799,4.0463,4.046,4.0458,0,4.0705,4.073,4.0791,4.0787,4.0739,4.077,4.0752,4.0726,4.0734,4.0733,4.0737,4.0743,4.0746,4.0752,4.0689,4.0625,4.0761,4.0659,4.0738,4.074,4.077,4.0769,4.1036,4.0778,4.0778,4.0777,4.0777,0,4.0909,4.0973,4.0879,4.0917,4.0985,4.0906,4.0976,4.0947,4.0925,4.0956,4.0869,4.09,4.0816,4.0838,4.0789,4.0849,4.0851,4.0829,4.0815,4.0836,4.0839,4.084,4.0827,4.0784,4.0782,4.0781,4.078,0,4.1141,4.1081,4.114,4.109,4.1078,4.1131,4.1087,4.112,4.1079,4.1119,4.1124,4.106,4.1081,4.1019,4.1031,4.0998,4.1084,4.1053,4.1091,4.1081,4.1162,4.1155,4.1439,4.1471,4.1194,4.1197,4.1199,0,4.1275,4.1321,4.1275,4.1288,4.1274,4.1297,4.1303,4.1227,4.1237,4.1216,4.1252,4.1265,4.1272,4.1311,4.1266,4.1274,4.1241,4.134,4.1242,4.1261,4.1241,4.1239,4.1243,4.136,4.1364,4.1367,4.1369,0,4.1518,4.1485,4.1497,4.1498,4.1508,4.1505,4.1497,4.1513,4.1431,4.1447,4.1467,4.1472,4.1483,4.1498,4.1496,4.1477,4.141,4.14,4.1418,4.144,4.146,4.1449,4.1145,4.1394,4.1391,4.1389,4.1388,4.1387,4.1704,4.1739,4.1711,4.1727,4.1712,4.1706,4.1734,4.1695,4.171,4.1712,4.1666,4.1695,4.1672,4.1663,4.1651,4.1673,4.1627,4.1654,4.1661,4.1669,4.1682,4.1457,4.1672,4.1671,4.1671,4.167,4.167,0,4.1941,4.1918,4.1933,4.1922,4.1935,4.1868,4.1855,4.187,4.1896,4.188,4.1888,4.191,4.1923,4.1879,4.1885,4.1911,4.1881,4.1916,4.1913,4.1909,4.1723,4.1705,4.194,4.194,4.194,4.194,4.194,4.194,4.2066,4.2122,4.2086,4.2134,4.211,4.2136,4.2134,4.2128,4.2114,4.2142,4.2152,4.2122,4.2095,4.2098,4.2108,4.2094,4.21,4.2146,4.2123,4.1949,4.1922,4.1897,4.188,4.2149,4.2149,4.2307,4.2308,4.2309]}]]